Location: Holyhead Bay
(53.3667°N, 4.6667°W)
Time: 23:13:04
(UTC+00:00)

ADEOS Rocket - Pass Details

Date: 23 April 2021
Orbit: 859 x 1306 km, 98.7° (Epoch: 15 May)

Event Time Altitude Azimuth Distance (km) Brightness Sun altitude
Exits shadow 04:15:35 - 207° (SSW) 3,563 5.4 -6.9°
Reaches altitude 10° 04:17:42 10° 217° (SW) 2,921 4.9 -6.6°
Maximum altitude 04:23:17 28° 273° (W) 2,038 4.3 -5.9°
Drops below altitude 10° 04:29:21 10° 330° (NNW) 3,190 5.7 -5.1°
Sets 04:32:38 0° 342° (NNW) 4,215 6.5 -4.7°
